CAPE
1994 2084 1931 1514 1774 2216 1731 1471 1112 699 539 664 578 1584 1603 1535 796 1004 981 84 217 327 204 32 3 3 1 0 0 0 0 0 0 0 0 25 229 508
1783 2062 2103 1602 1618 1783 1788 2065 1309 1226 1097 871 843 1041 1352 1059 485 781 216 7 2 11 18 10 0 4 3 0 0 0 0 0 0 0 0 36 52 93
2184 2061 2040 2068 1540 1395 2099 2081 2396 2049 1172 924 1030 1087 1578 1631 951 861 305 256 45 0 6 6 5 4 0 0 0 0 0 0 0 0 0 0 0 12
2078 2076 2084 2059 2016 2215 2724 2071 1438 1987 1475 1419 1790 1553 1228 1178 891 977 564 36 2 0 0 7 0 1 6 5 0 0 0 0 0 0 0 0 0 0
1894 1823 1857 1942 2126 2290 2107 2154 2132 1437 1405 1342 1213 1208 1002 714 584 801 837 269 0 0 0 0 0 0 5 9 3 0 0 0 0 0 0 0 0 0
2023 2102 1899 1729 1725 1020 1564 1794 1645 1613 1381 1399 1125 940 857 760 600 546 411 474 307 10 0 0 5 19 34 44 58 29 5 0 0 1 12 1 0 0
1842 1739 1667 750 481 544 1442 1575 1611 1348 1077 845 840 690 710 712 439 239 201 211 208 50 30 13 18 19 25 25 50 47 51 43 16 22 48 47 27 2
1754 1620 862 373 300 310 275 171 70 409 603 649 579 565 467 291 197 11 12 80 248 23 1 64 8 13 21 24 46 63 89 42 62 42 30 37 30 32
1528 1429 609 400 260 246 40 23 37 23 10 7 79 77 69 10 15 12 10 9 15 24 6 22 6 11 7 5 14 29 31 38 62 28 30 15 27 21
501 447 474 353 156 49 122 134 33 10 0 1 9 10 11 13 11 14 34 5 8 0 0 41 2 3 2 1 1 1 2 1 6 3 11 11 21 7
297 294 217 114 62 48 57 60 35 12 25 36 30 21 9 1 22 0 2 2 3 1 0 3 0 0 0 0 0 0 0 0 0 4 9 7 7 18
192 106 84 71 61 34 18 6 4 11 15 15 18 33 11 1 1 2 0 0 0 0 0 0 0 0 0 0 0 0 5 0 0 0 0 0 5 4
111 79 45 28 18 15 10 3 6 8 1 0 0 2 0 9 7 2 2 4 3 1 0 0 0 0 0 0 0 0 0 0 0 0 0 0 26 3
105 91 66 38 41 1 0 0 7 4 1 0 2 30 50 5 0 0 0 0 0 0 0 0 0 0 0 0 0 0 0 0 0 0 0 0 5 26
93 99 78 27 0 0 20 30 14 12 7 0 0 0 0 0 0 0 0 0 0 0 0 0 0 0 0 0 0 0 0 0 0 0 0 0 0 4
92 68 17 0 5 14 21 8 3 0 0 0 0 0 0 0 0 0 0 0 0 0 0 0 0 0 0 0 0 0 0 0 0 0 0 0 0 13
28 42 16 28 18 8 14 1 0 0 0 0 0 0 0 0 0 0 0 0 0 0 0 0 0 0 0 0 0 0 0 0 0 0 0 0 3 31
66 44 43 25 23 4 0 0 0 0 0 0 0 0 0 0 0 0 0 0 0 0 0 0 0 0 1 27 0 0 1 3 1 0 46 30 61 34
21 15 1 0 0 0 0 0 0 0 0 0 0 0 0 0 0 0 0 0 0 0 0 0 0 0 0 0 8 0 0 0 4 25 42 43 89 89
0 0 0 0 0 0 0 0 0 0 0 0 0 0 0 0 0 0 0 0 0 0 0 0 0 0 0 1 2 11 0 18 40 49 77 28 13 5
0 0 0 0 0 0 0 0 0 0 0 0 0 0 0 0 0 0 0 0 0 3 2 5 1 0 0 16 36 19 41 11 9 71 98 52 35 54
0 0 0 0 0 0 0 0 0 0 0 0 0 0 0 0 0 0 4 5 4 2 6 5 9 18 29 28 31 46 69 100 5 0 0 3 37 83
0 0 0 0 0 0 0 0 0 0 0 0 0 0 0 0 0 1 0 0 0 4 9 18 16 14 24 23 10 57 50 64 75 58 24 0 0 3
CIN
-1 0 -1 0 0 0 0 -1 0 0 -1 0 0 -5 -9 -15 -64 -38 -52 -148 -114 -75 -44 -63 -59 -45 -4 0 0 0 0 0 0 0 0 -88 -59 -35
0 0 0 0 0 0 0 0 0 0 0 0 0 -2 -8 -3 -61 -36 -113 -132 -114 -129 -95 -82 -23 -41 -51 0 0 0 0 0 0 0 0 -77 -103 -87
-2 -2 0 0 0 0 -1 -2 -1 -1 0 0 0 -1 -5 -9 -10 -27 -54 -56 -111 -25 -110 -95 -84 -77 0 0 0 0 0 0 0 0 0 0 0 -22
0 -1 0 -1 0 -1 0 -3 0 -3 0 0 0 0 -1 -5 -20 -13 -15 -67 -4 0 0 -63 -5 -46 -48 -35 0 0 0 0 0 0 0 0 0 0
-1 -1 0 -1 0 -2 -1 0 0 0 0 0 0 0 0 -4 -5 -1 -3 -25 0 0 0 0 0 0 -28 -23 0 -1 0 0 0 0 0 0 0 0
-6 -4 -2 -1 -1 -27 -2 0 0 0 0 0 0 0 0 0 0 0 0 -1 -1 -5 0 0 -27 -12 -6 -1 0 -4 -19 0 0 -9 -9 -1 0 0
-1 -7 -14 -50 -69 -31 -2 0 0 0 0 0 0 0 0 0 0 0 -1 -3 -4 -23 -21 -17 -18 -7 -7 -9 0 -2 -1 -2 -3 -5 -1 -5 0 -5
-4 -4 -19 -36 -41 -29 -31 -31 -33 -2 0 0 0 0 0 -1 -11 -18 -26 0 -2 -29 -11 -7 -12 -5 -1 -12 -1 -7 0 -2 -1 0 0 -9 -8 -9
-3 0 -4 -6 -8 -20 -43 -33 -10 -18 -20 -31 -2 -5 -4 -6 -9 -6 0 -1 -2 -1 -6 -2 -1 0 0 -2 -2 -1 -2 -16 -1 -9 -9 -1 0 -1
-11 -10 -2 -1 -5 -17 -16 -8 -17 -15 0 0 -12 -4 -7 0 -8 -11 -1 -4 -5 0 0 -1 -2 0 -1 -15 -6 -4 -18 -2 -11 -5 -3 -2 0 -1
-11 -13 -18 -18 -18 -17 -15 -7 -6 -19 -16 -10 -8 -11 -11 -1 -1 -2 -1 0 0 0 0 -11 -1 0 0 0 0 0 0 0 0 0 -19 -10 -10 0
-12 -19 -26 -27 -25 -27 -25 -50 -41 -11 -7 -7 -4 -2 -1 -2 -4 -33 -1 -2 0 0 0 0 0 0 0 0 0 0 -14 0 0 0 0 0 0 0
-18 -12 -2 -4 -3 -40 -17 -8 -7 -5 0 0 0 -1 0 0 0 0 0 0 0 -1 0 0 0 0 0 0 0 0 0 0 0 0 0 0 0 -1
-2 0 0 -1 -1 -1 0 0 -21 -14 -25 0 -5 -26 -7 0 0 0 0 0 0 0 0 0 0 0 0 0 0 0 0 0 0 0 0 0 -1 0
0 0 0 -2 -3 -3 -11 -14 -34 -41 -64 -13 0 0 0 0 0 0 0 0 0 0 0 0 0 0 0 0 0 0 0 0 0 0 0 0 -1 -1
0 -1 0 0 -7 -7 -18 -59 -99 -24 0 0 0 0 0 0 0 0 0 0 0 0 0 0 0 0 0 0 0 0 0 0 0 0 0 0 0 0
0 -2 -16 -15 -20 -36 -72 -9 0 0 0 0 0 0 0 0 0 0 0 0 0 0 0 0 0 0 0 0 0 0 0 0 0 0 0 0 -8 -2
-1 0 -1 -19 -44 -28 0 0 0 0 0 0 0 0 0 0 0 0 0 0 0 0 0 0 0 0 0 -12 0 0 0 0 0 0 -8 -5 -1 -1
-12 -84 -2 0 0 0 0 0 0 0 0 0 0 0 0 0 0 0 0 0 0 0 0 0 0 0 0 0 -1 0 0 0 0 0 0 0 -1 -2
0 0 0 0 0 0 0 0 0 0 0 0 0 0 0 0 0 0 0 0 0 0 0 0 0 0 0 0 0 0 -3 -5 0 0 0 -7 -30 -3
0 0 0 0 0 0 0 0 0 0 0 0 0 0 0 0 0 0 0 0 0 0 0 0 -1 0 0 -3 0 0 -2 -19 -9 -22 0 -1 0 0
0 0 0 0 0 0 0 0 0 0 0 0 0 0 0 0 0 0 0 0 0 0 0 0 -1 0 0 0 0 0 0 0 -22 0 -6 -13 -11 0
0 0 0 0 0 0 0 0 0 0 0 0 0 0 0 0 0 0 0 0 0 0 0 0 0 0 0 0 0 0 0 0 0 0 0 -1 -4 -1
Wind_Speed
4 4 5 5 6 8 11 11 7 5 4 6 7 10 9 10 12 10 12 nan 15 14 13 nan nan nan nan nan nan nan nan nan nan nan nan nan 4 4
6 6 6 6 6 9 9 10 8 6 5 6 6 9 9 10 16 13 19 nan nan nan nan nan nan nan nan nan nan nan nan nan nan nan nan nan nan nan
7 7 6 7 8 10 9 8 9 12 9 8 11 12 12 13 16 17 20 20 nan nan nan nan nan nan nan nan nan nan nan nan nan nan nan nan nan nan
7 7 7 9 11 11 11 10 12 13 11 10 14 13 14 16 17 20 22 nan nan nan nan nan nan nan nan nan nan nan nan nan nan nan nan nan nan nan
8 9 11 11 12 14 13 14 16 14 13 14 14 19 18 20 20 21 21 24 nan nan nan nan nan nan nan nan nan nan nan nan nan nan nan nan nan nan
13 14 15 16 19 19 17 11 14 16 15 16 17 17 19 21 20 19 21 26 22 nan nan nan nan nan nan nan nan nan nan nan nan nan nan nan nan nan
17 19 24 28 25 30 24 18 17 17 17 19 20 22 23 23 27 29 26 27 31 nan nan nan nan nan nan nan nan nan nan nan nan nan nan nan nan nan
22 30 34 35 34 32 31 31 nan 18 20 24 24 24 25 27 30 nan nan nan 33 nan nan nan nan nan nan nan nan nan nan nan nan nan nan nan nan nan
31 34 35 37 33 33 nan nan nan nan nan nan nan nan nan nan nan nan nan nan nan nan nan nan nan nan nan nan nan nan nan nan nan nan nan nan nan nan
39 40 40 40 38 nan 34 34 nan nan nan nan nan nan nan nan nan nan nan nan nan nan nan nan nan nan nan nan nan nan nan nan nan nan nan nan nan nan
42 46 43 44 nan nan nan nan nan nan nan nan nan nan nan nan nan nan nan nan nan nan nan nan nan nan nan nan nan nan nan nan nan nan nan nan nan nan
45 46 nan nan nan nan nan nan nan nan nan nan nan nan nan nan nan nan nan nan nan nan nan nan nan nan nan nan nan nan nan nan nan nan nan nan nan nan
46 nan nan nan nan nan nan nan nan nan nan nan nan nan nan nan nan nan nan nan nan nan nan nan nan nan nan nan nan nan nan nan nan nan nan nan nan nan
50 nan nan nan nan nan nan nan nan nan nan nan nan nan nan nan nan nan nan nan nan nan nan nan nan nan nan nan nan nan nan nan nan nan nan nan nan nan
nan nan nan nan nan nan nan nan nan nan nan nan nan nan nan nan nan nan nan nan nan nan nan nan nan nan nan nan nan nan nan nan nan nan nan nan nan nan
nan nan nan nan nan nan nan nan nan nan nan nan nan nan nan nan nan nan nan nan nan nan nan nan nan nan nan nan nan nan nan nan nan nan nan nan nan nan
nan nan nan nan nan nan nan nan nan nan nan nan nan nan nan nan nan nan nan nan nan nan nan nan nan nan nan nan nan nan nan nan nan nan nan nan nan nan
nan nan nan nan nan nan nan nan nan nan nan nan nan nan nan nan nan nan nan nan nan nan nan nan nan nan nan nan nan nan nan nan nan nan nan nan nan nan
nan nan nan nan nan nan nan nan nan nan nan nan nan nan nan nan nan nan nan nan nan nan nan nan nan nan nan nan nan nan nan nan nan nan nan nan nan nan
nan nan nan nan nan nan nan nan nan nan nan nan nan nan nan nan nan nan nan nan nan nan nan nan nan nan nan nan nan nan nan nan nan nan nan nan nan nan
nan nan nan nan nan nan nan nan nan nan nan nan nan nan nan nan nan nan nan nan nan nan nan nan nan nan nan nan nan nan nan nan nan nan nan nan nan nan
nan nan nan nan nan nan nan nan nan nan nan nan nan nan nan nan nan nan nan nan nan nan nan nan nan nan nan nan nan nan nan 42 nan nan nan nan nan nan
nan nan nan nan nan nan nan nan nan nan nan nan nan nan nan nan nan nan nan nan nan nan nan nan nan nan nan nan nan nan nan nan nan nan nan nan nan nan
Wind_Direction
234 262 292 283 304 326 333 339 328 310 295 288 308 306 310 318 299 305 299 nan 295 298 308 nan nan nan nan nan nan nan nan nan nan nan nan nan 10 26
240 268 277 272 289 305 319 322 327 325 297 283 300 298 301 313 301 302 303 nan nan nan nan nan nan nan nan nan nan nan nan nan nan nan nan nan nan nan
257 269 268 292 293 298 307 302 303 307 300 283 293 293 306 306 302 300 304 303 nan nan nan nan nan nan nan nan nan nan nan nan nan nan nan nan nan nan
253 261 274 286 303 302 297 289 293 294 293 277 277 289 290 284 291 295 294 nan nan nan nan nan nan nan nan nan nan nan nan nan nan nan nan nan nan nan
255 264 270 279 293 281 278 275 282 282 289 290 285 288 287 288 295 295 295 298 nan nan nan nan nan nan nan nan nan nan nan nan nan nan nan nan nan nan
257 270 272 271 272 274 254 277 279 276 284 290 285 285 291 278 284 288 295 297 289 nan nan nan nan nan nan nan nan nan nan nan nan nan nan nan nan nan
261 266 276 280 279 269 276 279 276 280 281 282 286 282 284 278 272 275 286 287 291 nan nan nan nan nan nan nan nan nan nan nan nan nan nan nan nan nan
258 268 272 275 277 280 276 273 nan 275 286 287 287 288 285 280 279 nan nan nan 287 nan nan nan nan nan nan nan nan nan nan nan nan nan nan nan nan nan
261 268 271 270 272 277 nan nan nan nan nan nan nan nan nan nan nan nan nan nan nan nan nan nan nan nan nan nan nan nan nan nan nan nan nan nan nan nan
263 264 268 270 268 nan 278 278 nan nan nan nan nan nan nan nan nan nan nan nan nan nan nan nan nan nan nan nan nan nan nan nan nan nan nan nan nan nan
262 263 266 269 nan nan nan nan nan nan nan nan nan nan nan nan nan nan nan nan nan nan nan nan nan nan nan nan nan nan nan nan nan nan nan nan nan nan
264 264 nan nan nan nan nan nan nan nan nan nan nan nan nan nan nan nan nan nan nan nan nan nan nan nan nan nan nan nan nan nan nan nan nan nan nan nan
265 nan nan nan nan nan nan nan nan nan nan nan nan nan nan nan nan nan nan nan nan nan nan nan nan nan nan nan nan nan nan nan nan nan nan nan nan nan
263 nan nan nan nan nan nan nan nan nan nan nan nan nan nan nan nan nan nan nan nan nan nan nan nan nan nan nan nan nan nan nan nan nan nan nan nan nan
nan nan nan nan nan nan nan nan nan nan nan nan nan nan nan nan nan nan nan nan nan nan nan nan nan nan nan nan nan nan nan nan nan nan nan nan nan nan
nan nan nan nan nan nan nan nan nan nan nan nan nan nan nan nan nan nan nan nan nan nan nan nan nan nan nan nan nan nan nan nan nan nan nan nan nan nan
nan nan nan nan nan nan nan nan nan nan nan nan nan nan nan nan nan nan nan nan nan nan nan nan nan nan nan nan nan nan nan nan nan nan nan nan nan nan
nan nan nan nan nan nan nan nan nan nan nan nan nan nan nan nan nan nan nan nan nan nan nan nan nan nan nan nan nan nan nan nan nan nan nan nan nan nan
nan nan nan nan nan nan nan nan nan nan nan nan nan nan nan nan nan nan nan nan nan nan nan nan nan nan nan nan nan nan nan nan nan nan nan nan nan nan
nan nan nan nan nan nan nan nan nan nan nan nan nan nan nan nan nan nan nan nan nan nan nan nan nan nan nan nan nan nan nan nan nan nan nan nan nan nan
nan nan nan nan nan nan nan nan nan nan nan nan nan nan nan nan nan nan nan nan nan nan nan nan nan nan nan nan nan nan nan nan nan nan nan nan nan nan
nan nan nan nan nan nan nan nan nan nan nan nan nan nan nan nan nan nan nan nan nan nan nan nan nan nan nan nan nan nan nan 306 nan nan nan nan nan nan
nan nan nan nan nan nan nan nan nan nan nan nan nan nan nan nan nan nan nan nan nan nan nan nan nan nan nan nan nan nan nan nan nan nan nan nan nan nan